Penn Yan, NY

9:59 PM EST on February 09, 2016 (GMT -0500)
Penn Yan

Weather History for KPEO - April, 2014

Change the Weather History Date:

Wednesday, April 16, 2014

  Actual Average (KITH) Record (KITH)
Temperature  
Mean Temperature 31 °F -  
Max Temperature 39 °F 55 °F 86 °F (2002)
Min Temperature 23 °F 37 °F 20 °F (1943)
Degree Days  
Heating Degree Days 34    
Moisture  
Dew Point 15 °F    
Average Humidity 59    
Maximum Humidity 74    
Minimum Humidity 41    
Precipitation  
Precipitation 0.00 in - - ()
Sea Level Pressure  
Sea Level Pressure 30.41 in    
Wind  
Wind Speed 10 mph (NW)    
Max Wind Speed 15 mph    
Max Gust Speed 25 mph    
Visibility 10 miles    
Events Snow    
Averages and records for this station are not official NWS values.
T = Trace of Precipitation, MM = Missing Value Source: NWS Daily Summary

Daily Weather History Graph

Daily Weather History Graph

Search for Another Location

Airport or City:

Trip Planner

Search our weather history database for the weather conditions in past years. The results will help you decide how hot, cold, wet, or windy it might be!

Date:

Astronomy

Apr. 16, 2014 Rise Set
Actual Time 6:25 AM EDT 7:51 PM EDT
Civil Twilight 5:55 AM EDT 8:20 PM EDT
Nautical Twilight 5:20 AM EDT 8:56 PM EDT
Astronomical Twilight 4:42 AM EDT 9:34 PM EDT
Moon 9:34 PM EDT (4/16) 7:09 AM EDT (4/16)
Length of Visible Light 14h 24m
Length of Day
13h 26m
Full, 98% of the Moon is Illuminated
Apr 16
Full
Apr 22
Last Quarter
Apr 29
New
May 6
First Quarter
May 14
Full

Hourly Weather History & Observations

Time (EDT) Temp. Windchill Dew Point Humidity Pressure Visibility Wind Dir Wind Speed Gust Speed Precip Events Conditions
12:53 AM 26.1 °F 15.6 °F 15.1 °F 63% 30.15 in 8.0 mi WNW 11.5 mph 20.7 mph 0.00 in Snow Light Snow
1:53 AM 24.1 °F 12.5 °F 10.9 °F 57% 30.14 in 10.0 mi WNW 12.7 mph 20.7 mph 0.00 in   Partly Cloudy
2:53 AM 24.1 °F 11.5 °F 10.9 °F 57% 30.19 in 10.0 mi WNW 15.0 mph 24.2 mph N/A   Overcast
3:53 AM 24.1 °F 14.4 °F 12.0 °F 60% 30.21 in 10.0 mi WNW 9.2 mph - N/A   Overcast
4:53 AM 24.1 °F 13.7 °F 12.9 °F 62% 30.25 in 9.0 mi West 10.4 mph 18.4 mph 0.00 in   Overcast
5:48 AM 23.0 °F 12.4 °F 14.0 °F 68% 30.25 in 10.0 mi West 10.4 mph - 0.00 in   Overcast
5:53 AM 23.0 °F 12.4 °F 15.1 °F 72% 30.30 in 8.0 mi WNW 10.4 mph - 0.00 in Snow Light Snow
6:53 AM 23.0 °F 14.7 °F 16.0 °F 74% 30.35 in 5.0 mi WNW 6.9 mph - 0.00 in Snow Light Snow
7:53 AM 25.0 °F 16.3 °F 15.1 °F 66% 30.40 in 10.0 mi WNW 8.1 mph - 0.00 in   Overcast
8:01 AM 25.0 °F 16.3 °F 15.1 °F 66% 30.36 in 10.0 mi NW 8.1 mph 21.9 mph N/A   Overcast
8:28 AM 26.1 °F 16.2 °F 15.1 °F 63% 30.37 in 10.0 mi NW 10.4 mph - N/A   Scattered Clouds
8:53 AM 26.1 °F 14.5 °F 15.1 °F 63% 30.42 in 10.0 mi NW 13.8 mph 24.2 mph N/A   Scattered Clouds
9:01 AM 26.1 °F 15.6 °F 12.9 °F 58% 30.37 in 10.0 mi WNW 11.5 mph 25.3 mph N/A   Mostly Cloudy
9:13 AM 26.1 °F 14.5 °F 14.0 °F 60% 30.38 in 10.0 mi NNW 13.8 mph 23.0 mph N/A   Scattered Clouds
9:53 AM 27.0 °F 15.6 °F 14.0 °F 58% 30.45 in 10.0 mi NW 13.8 mph 17.3 mph N/A   Mostly Cloudy
10:53 AM 28.9 °F 20.4 °F 16.0 °F 58% 30.49 in 10.0 mi NNW 9.2 mph 17.3 mph N/A   Overcast
11:53 AM 30.0 °F 25.2 °F 14.0 °F 51% 30.52 in 10.0 mi Variable 4.6 mph - N/A   Overcast
12:53 PM 33.1 °F 27.7 °F 16.0 °F 50% 30.52 in 10.0 mi WNW 5.8 mph - N/A   Mostly Cloudy
2:53 PM 35.1 °F 28.6 °F 15.1 °F 44% 30.51 in 10.0 mi NW 8.1 mph - N/A   Clear
3:53 PM 37.0 °F 31.6 °F 15.1 °F 41% 30.50 in 10.0 mi Variable 6.9 mph - N/A   Clear
4:53 PM 37.0 °F 29.3 °F 15.1 °F 41% 30.51 in 10.0 mi NNW 11.5 mph - N/A   Clear
5:53 PM 39.0 °F 35.7 °F 17.1 °F 41% 30.52 in 10.0 mi Variable 4.6 mph - N/A   Clear
6:53 PM 36.0 °F 30.3 °F 17.1 °F 46% 30.54 in 10.0 mi NE 6.9 mph - N/A   Clear
7:53 PM 33.1 °F 26.9 °F 19.0 °F 56% 30.54 in 10.0 mi NE 6.9 mph - N/A   Clear
8:53 PM 30.9 °F 26.2 °F 21.0 °F 67% 30.57 in 10.0 mi NE 4.6 mph - N/A   Clear
9:53 PM 28.9 °F 23.9 °F 19.0 °F 67% 30.58 in 10.0 mi NE 4.6 mph - N/A   Clear
10:53 PM 28.0 °F 24.2 °F 19.0 °F 69% 30.58 in 10.0 mi NNE 3.5 mph - N/A   Clear
11:53 PM 27.0 °F - 19.0 °F 72% 30.59 in 10.0 mi Calm Calm - N/A   Clear